Weather History for KMVY - February, 2013

Change the Weather History Date:

Saturday, February 23, 2013

  Actual Average Record
Temperature  
Mean Temperature 34 °F -  
Max Temperature 39 °F 43 °F 60 °F (1991)
Min Temperature 30 °F 27 °F 5 °F (1972)
Degree Days  
Heating Degree Days 30    
Moisture  
Dew Point 32 °F    
Average Humidity 86    
Maximum Humidity 100    
Minimum Humidity 67    
Precipitation  
Precipitation 0.20 in - - ()
Sea Level Pressure  
Sea Level Pressure 30.12 in    
Wind  
Wind Speed 7 mph (East)    
Max Wind Speed 17 mph    
Max Gust Speed 26 mph    
Visibility 9 miles    
Events Rain    
Averages and records for this station are not official NWS values.
T = Trace of Precipitation, MM = Missing Value Source: NWS Daily Summary

Daily Weather History Graph

Daily Weather History Graph

Search for Another Location

Airport or City:

Trip Planner

Search our weather history database for the weather conditions in past years. The results will help you decide how hot, cold, wet, or windy it might be!

Date:

Astronomy

Feb. 23, 2013 Rise Set
Actual Time 6:25 AM EST 5:26 PM EST
Civil Twilight 5:57 AM EST 5:54 PM EST
Nautical Twilight 5:25 AM EST 6:26 PM EST
Astronomical Twilight 4:53 AM EST 6:58 PM EST
Moon 3:32 PM EST (2/23) 4:47 AM EST (2/23)
Length of Visible Light 11h 56m
Length of Day
11h 00m
Waxing Gibbous, 95% of the Moon is Illuminated
Feb 23
Waxing Gibbous
Feb 25
Full
Mar 4
Last Quarter
Mar 11
New
Mar 19
First Quarter

Hourly Weather History & Observations

Time (EST) Temp. Windchill Dew Point Humidity Pressure Visibility Wind Dir Wind Speed Gust Speed Precip Events Conditions
12:10 AM 33.8 °F 30.8 °F 26.6 °F 75% 30.33 in 10.0 mi NNE 3.5 mph - N/A   Overcast
12:38 AM 32.0 °F 28.7 °F 26.6 °F 80% 30.31 in 10.0 mi ENE 3.5 mph - N/A   Overcast
12:53 AM 30.9 °F - 25.0 °F 79% 30.32 in 10.0 mi Calm Calm - N/A   Mostly Cloudy
1:53 AM 30.9 °F - 26.1 °F 82% 30.32 in 10.0 mi Calm Calm - N/A   Overcast
2:53 AM 32.0 °F - 27.0 °F 82% 30.30 in 10.0 mi Calm Calm - N/A   Overcast
3:53 AM 32.0 °F 28.7 °F 28.0 °F 85% 30.27 in 10.0 mi ENE 3.5 mph - N/A   Overcast
4:53 AM 30.9 °F 27.5 °F 28.9 °F 92% 30.27 in 10.0 mi East 3.5 mph - N/A   Scattered Clouds
5:53 AM 30.9 °F 26.2 °F 28.9 °F 92% 30.26 in 10.0 mi ESE 4.6 mph - N/A   Mostly Cloudy
6:53 AM 30.9 °F 26.2 °F 28.9 °F 92% 30.25 in 10.0 mi ESE 4.6 mph - N/A   Scattered Clouds
7:53 AM 35.1 °F 27.9 °F 30.0 °F 82% 30.25 in 10.0 mi ESE 9.2 mph - N/A   Overcast
8:53 AM 37.0 °F 31.0 °F 30.0 °F 76% 30.24 in 10.0 mi SE 8.1 mph - N/A   Overcast
9:53 AM 37.0 °F 29.3 °F 28.9 °F 73% 30.22 in 10.0 mi SE 11.5 mph - N/A   Overcast
10:53 AM 37.9 °F 30.0 °F 30.0 °F 73% 30.20 in 10.0 mi ESE 12.7 mph - N/A   Overcast
11:53 AM 39.0 °F 31.4 °F 28.9 °F 67% 30.17 in 10.0 mi SE 12.7 mph 21.9 mph N/A   Overcast
12:53 PM 39.0 °F 31.4 °F 30.0 °F 70% 30.15 in 10.0 mi SE 12.7 mph 19.6 mph N/A   Overcast
1:53 PM 37.9 °F 30.5 °F 30.9 °F 76% 30.12 in 10.0 mi SE 11.5 mph - N/A   Overcast
2:53 PM 37.9 °F 30.5 °F 30.0 °F 73% 30.12 in 10.0 mi ESE 11.5 mph - N/A   Overcast
3:53 PM 37.0 °F 28.5 °F 30.0 °F 76% 30.09 in 10.0 mi ESE 13.8 mph - N/A   Overcast
4:53 PM 37.0 °F 29.8 °F 30.9 °F 79% 30.06 in 10.0 mi ESE 10.4 mph - 0.00 in Rain Light Rain
5:53 PM 36.0 °F 29.6 °F 33.1 °F 89% 30.04 in 10.0 mi East 8.1 mph - 0.00 in Rain Light Rain
6:53 PM 36.0 °F 28.5 °F 35.1 °F 97% 30.01 in 7.0 mi East 10.4 mph - 0.03 in Rain Light Rain
7:53 PM 37.0 °F 28.9 °F 36.0 °F 96% 29.99 in 8.0 mi East 12.7 mph - 0.04 in Rain Light Rain
8:00 PM 37.4 °F 29.8 °F 35.6 °F 93% 29.98 in 10.0 mi East 11.5 mph - 0.00 in Rain Light Rain
8:15 PM 37.4 °F 28.9 °F 35.6 °F 93% 29.97 in 9.0 mi East 13.8 mph - 0.01 in Rain Light Rain
8:53 PM 37.0 °F 28.1 °F 36.0 °F 96% 29.96 in 6.0 mi East 15.0 mph 23.0 mph 0.04 in Rain Light Rain
9:28 PM 37.4 °F 28.2 °F 37.4 °F 100% 29.93 in 8.0 mi East 16.1 mph 23.0 mph 0.02 in Rain Light Rain
9:53 PM 37.9 °F 28.9 °F 37.0 °F 97% 29.92 in 6.0 mi East 16.1 mph 25.3 mph 0.03 in Rain Rain
10:10 PM 37.4 °F 28.5 °F 37.4 °F 100% 29.90 in 6.0 mi East 15.0 mph 23.0 mph N/A Rain Rain
10:53 PM 37.9 °F 28.5 °F 37.9 °F 100% 29.86 in 5.0 mi East 17.3 mph 26.5 mph N/A Rain Rain
11:53 PM 39.0 °F 29.9 °F 39.0 °F 100% 29.82 in 8.0 mi East 17.3 mph 26.5 mph 0.06 in Rain Light Rain